Location: Newark
(35.2672°N, 80.7344°W)
Time: 14:38:31
(UTC+00:00)

SR - Pass Details

Date: 01 February 2020
Orbit: 576 x 880 km, 66.7° (Epoch: 28 February)

Event Time Altitude Azimuth Distance (km) Brightness Sun altitude
Rises 01:38:12 0° 207° (SSW) 3,366 ? -34.5°
Reaches altitude 10° 01:40:36 10° 209° (SSW) 2,465 ? -35.0°
Enters shadow 01:42:15 20° 210° (SSW) 1,870 ? -35.3°
